CW5363 Weather Reports


Display with metric or nautical units.
time (UTC)temp
F
wind
direction
speed
MPH
gust
MPH
rain 1hr
in
rain 24hr
in
rain mn
in
humidity
%
barometer
mb
20190224011334 41 90 0.0 1.0 0.00 0.46 0.45 100 1017.8
20190224010823 41 90 0.0 0.0 0.00 0.46 0.45 100 1017.8
20190224010334 41 90 0.0 0.0 0.00 0.46 0.45 100 1017.8
20190224005822 41 90 0.0 0.0 0.00 0.46 0.45 99 1017.7
20190224005332 41 90 0.0 0.0 0.00 0.46 0.45 99 1017.7
20190224004822 41 90 0.0 1.0 0.00 0.46 0.45 99 1017.7
20190224004335 41 90 0.0 1.0 0.00 0.46 0.45 99 1018.0
20190224003824 41 90 0.0 1.0 0.00 0.46 0.45 99 1018.0
20190224003334 41 90 0.0 0.0 0.00 0.46 0.45 99 1018.0
20190224002823 41 90 0.0 0.0 0.01 0.46 0.45 99 1018.4
20190224002332 41 90 0.0 1.0 0.01 0.46 0.45 99 1018.4
20190224001822 41 90 0.0 2.0 0.01 0.46 0.45 99 1018.4
20190224001331 41 90 0.0 2.0 0.01 0.46 0.45 99 1018.3
20190224000820 41 90 0.0 2.0 0.01 0.46 0.45 99 1018.3
20190224000317 41 55 1.0 2.0 0.01 0.46 0.45 99 1018.3
20190223235829 41 55 0.0 1.0 0.01 0.46 0.45 99 1018.6
20190223235318 41 55 0.0 1.0 0.01 0.46 0.45 99 1018.6
20190223234828 41 55 0.0 2.0 0.01 0.46 0.45 99 1018.6
20190223234318 41 55 1.0 2.0 0.01 0.46 0.45 99 1018.8
20190223233828 41 55 0.0 1.0 0.01 0.46 0.45 99 1018.8
20190223233318 41 55 0.0 1.0 0.01 0.46 0.45 99 1018.8
20190223232828 41 55 0.0 1.0 0.00 0.45 0.44 99 1018.7
20190223232318 41 55 0.0 1.0 0.00 0.45 0.44 99 1018.7
20190223231832 41 55 1.0 1.0 0.00 0.45 0.44 99 1018.7
20190223231325 41 55 0.0 0.0 0.00 0.45 0.44 99 1018.7
20190223230834 41 55 0.0 0.0 0.00 0.45 0.44 99 1018.7
20190223230324 41 55 0.0 0.0 0.00 0.45 0.44 99 1018.7
20190223225834 41 55 0.0 0.0 0.00 0.46 0.44 99 1018.6
20190223225323 41 55 0.0 0.0 0.00 0.46 0.44 99 1018.6
20190223224836 41 55 0.0 0.0 0.00 0.46 0.44 99 1018.6
20190223224325 41 55 0.0 0.0 0.00 0.46 0.44 99 1018.8
20190223223833 41 55 0.0 0.0 0.00 0.46 0.44 99 1018.8
20190223223327 41 55 0.0 0.0 0.00 0.46 0.44 99 1018.8
20190223222836 41 55 0.0 0.0 0.00 0.46 0.44 99 1019.0
20190223222326 41 55 0.0 0.0 0.00 0.46 0.44 99 1019.0
20190223221820 41 55 0.0 1.0 0.00 0.46 0.44 99 1019.0
20190223221329 41 55 0.0 1.0 0.00 0.46 0.44 99 1019.2
20190223220818 41 55 0.0 1.0 0.00 0.46 0.44 99 1019.2
20190223220329 41 55 0.0 1.0 0.00 0.46 0.44 99 1019.2
20190223215822 41 55 0.0 2.0 0.00 0.49 0.44 99 1019.2
20190223215319 41 55 1.0 2.0 0.00 0.49 0.44 99 1019.2
20190223214830 41 55 0.0 1.0 0.00 0.49 0.44 99 1019.2
20190223214319 41 55 0.0 1.0 0.00 0.49 0.44 99 1019.7
20190223213829 41 55 0.0 1.0 0.00 0.49 0.44 99 1019.7
20190223213322 41 55 0.0 1.0 0.00 0.49 0.44 99 1019.7
20190223212830 41 55 0.0 1.0 0.00 0.49 0.44 99 1019.7
20190223212318 41 55 1.0 1.0 0.00 0.49 0.44 99 1019.7
20190223211829 41 54 0.0 1.0 0.00 0.49 0.44 99 1019.7
20190223211321 41 54 0.0 1.0 0.00 0.49 0.44 99 1020.1
20190223210833 41 54 0.0 2.0 0.01 0.49 0.44 98 1020.1
20190223210323 41 47 0.0 2.0 0.01 0.49 0.44 99 1020.1
20190223205832 41 46 1.0 2.0 0.01 0.51 0.44 99 1020.3
20190223205323 41 44 0.0 1.0 0.01 0.51 0.44 99 1020.3
20190223204833 41 44 0.0 2.0 0.01 0.51 0.44 99 1020.3
20190223204322 41 41 1.0 2.0 0.01 0.51 0.44 99 1020.3
20190223203831 41 41 1.0 1.0 0.01 0.51 0.44 99 1020.3
20190223203321 41 41 0.0 2.0 0.02 0.51 0.44 98 1020.3
20190223202834 41 41 1.0 3.0 0.03 0.51 0.44 98 1020.6
20190223202323 41 49 1.0 3.0 0.03 0.51 0.44 98 1020.6
20190223201816 41 16 1.0 2.0 0.03 0.51 0.44 98 1020.6
20190223201327 41 17 0.0 2.0 0.03 0.51 0.44 99 1020.4
20190223200836 41 17 0.0 1.0 0.02 0.50 0.43 98 1020.4
20190223200326 41 41 0.0 3.0 0.02 0.50 0.43 98 1020.4
20190223195835 41 57 0.0 3.0 0.02 0.59 0.43 98 1020.7
20190223195324 41 44 2.0 3.0 0.02 0.59 0.43 99 1020.7
20190223194821 41 86 0.0 1.0 0.02 0.59 0.43 99 1020.7
20190223194329 41 87 0.0 1.0 0.03 0.59 0.43 99 1020.9
20190223193837 41 87 0.0 1.0 0.03 0.59 0.43 99 1020.9
20190223193327 41 87 0.0 1.0 0.02 0.58 0.42 99 1020.9
20190223192818 41 87 0.0 1.0 0.01 0.57 0.41 99 1020.9
20190223192328 41 87 0.0 1.0 0.01 0.57 0.41 99 1020.9
20190223191837 41 87 0.0 1.0 0.01 0.57 0.41 99 1020.9
20190223191326 41 87 1.0 2.0 0.01 0.57 0.41 99 1020.9
20190223190835 41 87 1.0 2.0 0.01 0.57 0.41 99 1020.9
20190223190329 41 87 0.0 2.0 0.01 0.57 0.41 98 1020.9
20190223185820 41 87 1.0 1.0 0.01 0.61 0.41 99 1021.1
20190223185328 41 87 1.0 1.0 0.01 0.61 0.41 99 1021.1
20190223184819 41 87 0.0 1.0 0.01 0.61 0.41 99 1021.1
20190223184329 41 87 0.0 1.0 0.00 0.60 0.40 99 1021.4
20190223183818 41 87 0.0 1.0 0.00 0.60 0.40 99 1021.4
20190223183328 41 89 0.0 2.0 0.00 0.60 0.40 98 1021.4
20190223182818 41 88 0.0 2.0 0.00 0.60 0.40 98 1021.4
20190223182327 41 88 1.0 2.0 0.00 0.60 0.40 99 1021.4
20190223181825 41 88 0.0 1.0 0.00 0.60 0.40 98 1021.4
20190223181336 41 69 0.0 2.0 0.00 0.60 0.40 98 1021.9
20190223180824 41 69 0.0 2.0 0.00 0.60 0.40 98 1021.9
20190223180334 41 78 1.0 2.0 0.00 0.60 0.40 98 1021.9
20190223175823 41 78 1.0 2.0 0.00 0.61 0.40 98 1022.0
20190223175330 41 78 1.0 2.0 0.00 0.61 0.40 98 1022.0
20190223174821 41 78 0.0 2.0 0.00 0.61 0.40 98 1022.0
20190223174332 41 78 1.0 2.0 0.00 0.61 0.40 98 1022.5
20190223173825 41 341 1.0 2.0 0.00 0.61 0.40 98 1022.5
20190223173335 41 348 0.0 1.0 0.00 0.61 0.40 98 1022.5
20190223172824 41 348 0.0 1.0 0.00 0.61 0.40 99 1022.5
20190223172332 41 348 0.0 1.0 0.00 0.61 0.40 99 1022.5
20190223171825 41 348 0.0 2.0 0.00 0.61 0.40 98 1022.5
20190223171333 41 348 1.0 2.0 0.00 0.61 0.40 98 1022.6
20190223170826 41 347 0.0 1.0 0.01 0.61 0.40 99 1022.6
20190223170336 41 347 0.0 1.0 0.01 0.61 0.40 99 1022.6
20190223165825 41 347 0.0 1.0 0.01 0.64 0.40 99 1023.0
20190223165320 40 347 0.0 3.0 0.01 0.64 0.40 99 1023.0
20190223164830 40 347 1.0 3.0 0.01 0.64 0.40 98 1023.0
20190223164319 40 347 1.0 2.0 0.02 0.64 0.40 98 1023.1
20190223163829 40 347 0.0 3.0 0.02 0.64 0.40 98 1023.1
20190223163318 41 9 2.0 3.0 0.02 0.64 0.40 99 1023.1
20190223162826 41 13 1.0 2.0 0.02 0.64 0.40 99 1023.2
20190223162336 41 342 0.0 1.0 0.02 0.64 0.40 99 1023.2
20190223161826 41 342 0.0 1.0 0.02 0.64 0.40 99 1023.2
20190223161319 41 342 0.0 2.0 0.02 0.64 0.40 99 1023.1
20190223160828 41 342 1.0 2.0 0.01 0.63 0.39 99 1023.1
20190223160318 41 9 1.0 2.0 0.01 0.63 0.39 99 1023.1
20190223155826 41 9 1.0 2.0 0.01 0.66 0.39 99 1023.1
20190223155334 41 5 0.0 2.0 0.01 0.66 0.39 98 1023.1
20190223154824 41 5 0.0 2.0 0.02 0.66 0.39 98 1023.1
20190223154332 41 13 1.0 2.0 0.01 0.65 0.38 99 1023.5
20190223153820 41 21 1.0 2.0 0.02 0.65 0.38 99 1023.5
20190223153330 41 142 1.0 2.0 0.02 0.65 0.38 98 1023.5
20190223152822 41 19 1.0 2.0 0.02 0.65 0.38 98 1023.4
20190223152330 41 46 1.0 2.0 0.02 0.65 0.38 98 1023.4
20190223151821 41 16 1.0 3.0 0.02 0.65 0.38 98 1023.4
20190223151330 41 16 1.0 3.0 0.02 0.65 0.38 98 1023.5
20190223150821 41 23 0.0 3.0 0.02 0.65 0.38 98 1023.5
20190223150331 41 23 0.0 3.0 0.02 0.65 0.38 98 1023.5
20190223145820 41 15 1.0 2.0 0.02 0.66 0.38 98 1023.5
20190223145331 41 53 0.0 2.0 0.02 0.66 0.38 99 1023.5
20190223144822 41 53 1.0 2.0 0.01 0.65 0.37 98 1023.5
20190223144334 41 5 0.0 2.0 0.01 0.65 0.37 98 1023.6
20190223143822 41 5 1.0 2.0 0.00 0.64 0.36 99 1023.6
20190223143332 41 9 1.0 2.0 0.01 0.64 0.36 98 1023.6
20190223142820 41 9 0.0 2.0 0.01 0.64 0.36 98 1023.4
20190223142333 41 48 1.0 3.0 0.01 0.64 0.36 98 1023.4
20190223141827 41 360 1.0 3.0 0.01 0.64 0.36 98 1023.4
20190223141336 41 310 1.0 2.0 0.01 0.64 0.36 99 1023.6
20190223140825 41 360 1.0 2.0 0.02 0.64 0.36 98 1023.6
20190223140319 41 360 1.0 2.0 0.02 0.64 0.36 98 1023.6
20190223135827 41 360 0.0 2.0 0.03 0.65 0.36 99 1023.2
20190223135335 41 360 0.0 2.0 0.03 0.65 0.36 98 1023.2
20190223134825 41 360 1.0 2.0 0.03 0.65 0.36 98 1023.2
20190223134333 41 5 1.0 2.0 0.04 0.65 0.36 99 1023.6
20190223133822 41 5 0.0 1.0 0.04 0.65 0.36 99 1023.6
20190223133332 41 5 0.0 2.0 0.03 0.64 0.35 99 1023.6
20190223132824 41 5 1.0 2.0 0.03 0.64 0.35 99 1023.6
20190223132333 41 5 1.0 2.0 0.04 0.64 0.35 99 1023.6
20190223131830 41 320 1.0 2.0 0.04 0.64 0.35 99 1023.6
20190223131319 41 298 0.0 2.0 0.04 0.64 0.35 99 1023.6
20190223130827 41 30 0.0 2.0 0.03 0.63 0.34 99 1023.6
20190223130337 41 30 1.0 2.0 0.03 0.63 0.34 99 1023.6
20190223125827 41 13 1.0 2.0 0.02 0.66 0.33 99 1023.7
20190223125316 41 5 0.0 2.0 0.02 0.66 0.33 99 1023.7
20190223124829 41 36 0.0 0.0 0.02 0.66 0.33 99 1023.7
20190223124318 41 36 0.0 2.0 0.01 0.65 0.32 99 1023.7
20190223123827 41 36 1.0 2.0 0.01 0.65 0.32 99 1023.7
20190223123323 41 5 1.0 3.0 0.01 0.65 0.32 99 1023.7
20190223122832 41 32 1.0 3.0 0.02 0.65 0.32 99 1023.5
20190223122321 41 5 1.0 2.0 0.01 0.64 0.31 99 1023.5
20190223121830 41 355 1.0 2.0 0.01 0.64 0.31 99 1023.5
20190223121319 41 355 0.0 2.0 0.01 0.64 0.31 99 1023.6
20190223120827 41 355 1.0 2.0 0.02 0.64 0.31 99 1023.6
20190223120337 41 355 0.0 2.0 0.02 0.64 0.31 99 1023.6
20190223115826 41 355 1.0 2.0 0.03 0.81 0.31 99 1023.7
20190223115322 41 355 0.0 2.0 0.03 0.81 0.31 98 1023.7
20190223114830 41 37 0.0 2.0 0.03 0.81 0.31 98 1023.7
20190223114318 41 10 0.0 3.0 0.04 0.81 0.31 98 1023.8
20190223113826 41 39 1.0 3.0 0.04 0.81 0.31 98 1023.8
20190223113319 41 127 0.0 2.0 0.05 0.81 0.31 99 1023.8
20190223112829 42 98 0.0 1.0 0.04 0.80 0.30 99 1023.7
20190223112317 42 98 0.0 2.0 0.04 0.80 0.30 99 1023.7
20190223111827 42 221 1.0 2.0 0.05 0.80 0.30 99 1023.7
20190223111319 42 291 0.0 2.0 0.05 0.80 0.30 99 1023.2
20190223110832 42 342 1.0 2.0 0.04 0.79 0.29 98 1023.2
20190223110321 42 184 0.0 3.0 0.04 0.79 0.29 98 1023.2
20190223105829 42 184 1.0 3.0 0.03 1.01 0.28 98 1023.4
20190223105317 42 323 1.0 2.0 0.03 1.01 0.28 98 1023.4
20190223104830 42 342 1.0 3.0 0.03 1.01 0.28 98 1023.4
20190223104318 42 355 2.0 3.0 0.02 1.00 0.27 98 1023.6
20190223103826 42 351 2.0 3.0 0.02 1.00 0.27 98 1023.6
20190223103336 42 344 1.0 3.0 0.01 0.99 0.26 99 1023.6
20190223102824 42 348 0.0 1.0 0.01 0.99 0.26 99 1023.6
20190223102318 42 348 1.0 2.0 0.01 0.99 0.26 99 1023.6
20190223101831 42 348 0.0 2.0 0.00 0.98 0.25 98 1023.6
20190223101318 42 348 0.0 1.0 0.00 0.98 0.25 98 1023.4
20190223100828 42 348 0.0 1.0 0.01 0.98 0.25 98 1023.4
20190223100318 42 348 0.0 1.0 0.01 0.98 0.25 98 1023.4
20190223095826 42 348 0.0 2.0 0.01 1.21 0.25 98 1023.6
20190223095335 42 348 1.0 2.0 0.01 1.21 0.25 98 1023.6
20190223094824 42 348 0.0 2.0 0.01 1.21 0.25 98 1023.6
20190223094332 42 348 0.0 2.0 0.01 1.21 0.25 98 1023.5
20190223093825 42 348 1.0 2.0 0.01 1.21 0.25 98 1023.5
20190223093335 42 348 1.0 2.0 0.01 1.21 0.25 98 1023.5
20190223092823 42 348 1.0 2.0 0.01 1.21 0.25 98 1023.4
20190223092335 43 57 0.0 2.0 0.01 1.21 0.25 98 1023.4
20190223091824 43 57 0.0 1.0 0.01 1.21 0.25 98 1023.4
20190223091335 43 57 0.0 1.0 0.01 1.21 0.25 98 1023.6
20190223090824 43 57 0.0 2.0 0.00 1.20 0.24 98 1023.6
20190223090335 43 57 1.0 4.0 0.01 1.20 0.24 99 1023.6
20190223085828 43 78 0.0 2.0 0.01 1.24 0.24 99 1023.7
20190223085317 43 360 1.0 2.0 0.02 1.24 0.24 99 1023.7
20190223084829 43 360 1.0 2.0 0.02 1.24 0.24 99 1023.7
20190223084337 43 360 0.0 1.0 0.03 1.24 0.24 98 1023.7
20190223083825 43 360 0.0 2.0 0.03 1.24 0.24 98 1023.7
20190223083335 43 360 0.0 2.0 0.03 1.24 0.24 98 1023.7
20190223082823 43 360 1.0 3.0 0.04 1.24 0.24 98 1023.7
20190223082333 43 5 1.0 3.0 0.05 1.24 0.24 98 1023.7
20190223081823 43 5 1.0 4.0 0.05 1.24 0.24 98 1023.7
20190223081316 43 360 2.0 4.0 0.05 1.24 0.24 98 1024.0
20190223080829 43 355 0.0 2.0 0.06 1.24 0.24 98 1024.0
20190223080321 43 355 1.0 3.0 0.05 1.23 0.23 99 1024.0
20190223075830 43 355 1.0 3.0 0.06 1.30 0.23 99 1024.1
20190223075320 43 355 1.0 2.0 0.06 1.29 0.22 99 1024.1
20190223074829 43 355 0.0 2.0 0.06 1.29 0.22 99 1024.1
20190223074337 43 355 1.0 3.0 0.05 1.28 0.21 98 1024.2
20190223073825 43 20 1.0 3.0 0.06 1.28 0.21 98 1024.2
20190223073318 43 349 1.0 3.0 0.06 1.28 0.21 99 1024.2
20190223072828 43 5 2.0 3.0 0.06 1.27 0.20 99 1024.3
20190223072318 43 347 1.0 2.0 0.05 1.26 0.19 99 1024.3
20190223071828 44 347 1.0 2.0 0.07 1.26 0.19 99 1024.3
20190223071337 44 347 1.0 3.0 0.12 1.26 0.19 99 1024.8
20190223070826 44 355 1.0 3.0 0.13 1.25 0.18 98 1024.8
20190223070335 44 21 0.0 2.0 0.14 1.25 0.18 98 1024.8
20190223065824 44 21 1.0 2.0 0.14 1.29 0.17 98 1024.8
20190223065333 44 340 1.0 4.0 0.13 1.28 0.16 98 1024.8
20190223064826 44 355 1.0 4.0 0.13 1.28 0.16 99 1024.8
20190223064334 44 5 1.0 2.0 0.14 1.28 0.16 99 1024.9
20190223063823 44 14 0.0 3.0 0.13 1.27 0.15 98 1024.9
20190223063333 44 16 1.0 3.0 0.13 1.27 0.15 99 1024.9
20190223062825 44 355 1.0 2.0 0.13 1.26 0.14 99 1024.8
20190223062314 44 355 1.0 1.0 0.13 1.26 0.14 99 1024.8
20190223061827 44 355 0.0 2.0 0.11 1.23 0.11 99 1024.8
20190223061336 44 355 0.0 3.0 0.07 1.19 0.07 99 1024.6
20190223060825 44 340 1.0 4.0 0.05 1.17 0.05 98 1024.6
20190223060318 44 338 2.0 4.0 0.04 1.16 0.04 98 1024.6
20190223055830 44 355 2.0 4.0 0.03 1.20 0.03 98 1024.7
20190223055320 44 360 1.0 4.0 0.04 1.20 0.03 98 1024.7
20190223054830 44 360 2.0 4.0 0.03 1.19 0.02 98 1024.7
20190223054318 44 33 1.0 2.0 0.03 1.19 0.02 99 1024.8
20190223053827 44 33 0.0 4.0 0.03 1.19 0.02 99 1024.8
20190223053336 44 34 1.0 4.0 0.03 1.19 0.02 99 1024.8
20190223052825 44 311 1.0 4.0 0.02 1.18 0.01 99 1025.1
20190223052320 45 16 1.0 4.0 0.02 1.18 0.01 99 1025.1
20190223051832 44 331 1.0 6.0 0.01 1.17 0.00 99 1025.1
20190223051319 45 39 3.0 6.0 0.01 1.17 0.00 99 1025.3
20190223050828 45 27 0.0 1.0 0.01 1.17 0.00 99 1025.3
20190223050319 45 27 1.0 1.0 0.01 1.17 0.00 99 1025.3
20190223045827 45 27 0.0 1.0 0.01 1.53 1.17 99 1025.4
20190223045317 45 27 0.0 2.0 0.00 1.52 1.16 99 1025.4
20190223044827 45 27 1.0 3.0 0.00 1.52 1.16 99 1025.4
20190223044335 45 355 0.0 3.0 0.00 1.52 1.16 99 1025.5
20190223043828 45 5 0.0 3.0 0.00 1.52 1.16 99 1025.5
20190223043318 45 5 1.0 3.0 0.00 1.52 1.16 99 1025.5
20190223042826 45 5 1.0 3.0 0.00 1.52 1.16 98 1025.9
20190223042334 45 350 1.0 3.0 0.00 1.52 1.16 98 1025.9
20190223041824 45 5 1.0 3.0 0.00 1.52 1.16 98 1025.9
20190223041333 45 331 2.0 3.0 0.00 1.52 1.16 99 1025.9
20190223040822 45 309 1.0 2.0 0.00 1.52 1.16 99 1025.9
20190223040315 45 309 1.0 4.0 0.00 1.52 1.16 99 1025.9
20190223035827 45 57 2.0 4.0 0.00 1.54 1.16 99 1025.9
20190223035320 45 42 1.0 2.0 0.00 1.54 1.16 99 1025.9
20190223034834 45 42 0.0 1.0 0.00 1.54 1.16 99 1025.9
20190223034321 45 42 0.0 1.0 0.00 1.54 1.16 99 1025.8
20190223033831 45 42 0.0 2.0 0.00 1.54 1.16 98 1025.8
20190223033319 45 42 1.0 2.0 0.00 1.54 1.16 98 1025.8
20190223032828 45 335 1.0 2.0 0.00 1.54 1.16 99 1025.9
20190223032319 45 313 1.0 3.0 0.00 1.54 1.16 99 1025.9
20190223031827 45 38 2.0 3.0 0.00 1.54 1.16 99 1025.9
20190223031322 45 33 1.0 2.0 0.00 1.54 1.16 99 1025.9
20190223030831 45 346 0.0 2.0 0.00 1.54 1.16 99 1025.9
20190223030320 45 346 1.0 2.0 0.00 1.54 1.16 99 1025.9
20190223025830 45 343 1.0 3.0 0.00 1.55 1.16 99 1025.9
20190223025318 45 342 1.0 3.0 0.00 1.55 1.16 99 1025.9
20190223024828 45 40 1.0 3.0 0.00 1.55 1.16 98 1025.9
20190223024337 45 9 1.0 4.0 0.00 1.55 1.16 99 1025.8
20190223023826 45 21 2.0 5.0 0.00 1.55 1.16 98 1025.8
20190223023335 45 350 3.0 5.0 0.00 1.55 1.16 98 1025.8
20190223022828 45 65 1.0 3.0 0.00 1.55 1.16 98 1025.7
20190223022336 45 40 1.0 4.0 0.00 1.55 1.16 98 1025.7
20190223021825 45 323 1.0 3.0 0.00 1.55 1.16 98 1025.7
20190223021333 46 123 1.0 3.0 0.00 1.55 1.16 98 1025.7
20190223020822 46 42 1.0 3.0 0.00 1.55 1.16 99 1025.7
20190223020331 46 345 0.0 3.0 0.00 1.55 1.16 99 1025.7
20190223015819 46 345 2.0 3.0 0.00 1.56 1.16 99 1025.8
20190223015327 46 15 1.0 2.0 0.00 1.56 1.16 99 1025.8
20190223014819 46 41 1.0 2.0 0.00 1.56 1.16 99 1025.8
20190223014336 46 24 1.0 2.0 0.00 1.56 1.16 98 1025.4
20190223013825 46 105 0.0 2.0 0.00 1.56 1.16 99 1025.4
20190223013337 46 77 0.0 1.0 0.00 1.56 1.16 98 1025.4
20190223012825 46 77 0.0 1.0 0.00 1.56 1.16 99 1025.8
20190223012335 46 77 0.0 1.0 0.00 1.56 1.16 99 1025.8
20190223011823 46 82 1.0 1.0 0.00 1.56 1.16 99 1025.8